星链-31589 (STARLINK-31589 )

导读

STARLINK-31589是美国太空探索技术公司Starlink星链互联网卫星星座的一员,于2024年5月6日发射入轨。星链计划旨在构建全球卫星互联网,为全球提供高速低延迟网络服务,该卫星补充扩充了星链低轨星座的覆盖与通信能力,助力该星座实现全球无缝网络覆盖的建设目标。

基本信息
目录编号:
59654
目录名称:
STARLINK-31589
国际标识:
2024-084A
轨道中心:
EARTH
卫星名称:
星链-31589
卫星全名:
星链-31589 (STARLINK-31589 )
卫星状态:
在轨 (已飞行776 天)
发射日期:
2024-05-06 UTC
国别 :
美国 (US)
星等 :
--
轨道信息
数据来源 国际轨道数据 AOE轨道数据
星历时间 2026-06-20T16:04:56+0800
1天前
查看轨道信息
2026-06-15T07:00:00+0800
6天前
查看轨道信息
半长轴 6861.176km 6861.175km
偏心率 0.0000995 0.0001364
轨道倾角 43.001° 43.001°
近地点辐角 267.176° 254.127°
升交点赤经 181.937° 212.311°
平近点角 92.897° 13.774°
近地点 482.356km 482.102km
远地点 483.722km 483.974km
周期 94.267分钟 94.267分钟
每日圈数 15.275837 15.27584
详细信息
固有亮度:
5
最大亮度:
1.5
卫星平台:
Starlink v2.0 mini
覆盖范围:
全球
运营商:
太空探索技术公司
运营商所在国:
美国
制造商(研发单位):
太空探索技术公司
制造商所在国:
美国
使用方式:
暂无
卫星简介
星链(Starlink)计划是由太空探索技术公司(SpaceX)提出的一个巨型低轨卫星互联网星座项目,计划在2019年至2024年间在太空搭建由约1.2万颗卫星组成的“星链”网络,其中1584颗将部署在地球上空550千米处的近地轨道,并从2020年开始工作。该卫星仍在工作。
2D轨道图
3D轨道图
轨道高度分析图
轨道倾角分析图
轨道综合分析图
查看轨道综合分析图